Location: *
(51.1248°S, 108.4023°W)
Time: 22:17:28
(UTC+00:00)

Okean 1-7 - Pass Details

Date: 15 June 2021
Orbit: 589 x 619 km, 82.5° (Epoch: 04 August)

Event Time Altitude Azimuth Distance (km) Brightness Sun altitude
Rises 14:25:58 0° 353° (N) 2,841 6.8 -7.5°
Reaches altitude 10° 14:28:10 10° 354° (N) 1,944 5.9 -7.2°
Maximum altitude 14:32:28 84° 80° (E) 614 3.1 -6.6°
Drops below altitude 10° 14:36:49 10° 168° (SSE) 1,963 5.5 -6.0°
Sets 14:39:02 0° 169° (SSE) 2,872 6.3 -5.7°
